EN

Hourly Weather Sandatovskiy

Today, 30 September, Wednesday

Time Temperature Precipitation Wind Pressure Humidity
00:00 +15°C° 0 mm 9 mps 750 mmHg 48%
01:00 +13°C° 0 mm 9 mps 750 mmHg 52%
02:00 +13°C° 0 mm 9 mps 750 mmHg 56%
03:00 +13°C° 0 mm 8 mps 750 mmHg 60%
04:00 +12°C° 0 mm 9 mps 750 mmHg 61%
05:00 +12°C° 0 mm 9 mps 749 mmHg 62%
06:00 +12°C° 0 mm 9 mps 749 mmHg 63%
07:00 +14°C° 0 mm 10 mps 749 mmHg 56%
08:00 +16°C° 0 mm 11 mps 749 mmHg 48%
09:00 +18°C° 0 mm 12 mps 749 mmHg 41%
10:00 +19°C° 0 mm 12 mps 749 mmHg 35%
11:00 +22°C° 0 mm 12 mps 749 mmHg 29%
12:00 +24°C° 0 mm 13 mps 748 mmHg 23%
13:00 +24°C° 0 mm 12 mps 748 mmHg 23%
14:00 +26°C° 0 mm 12 mps 748 mmHg 22%
15:00 +26°C° 0 mm 11 mps 748 mmHg 22%
16:00 +24°C° 0 mm 11 mps 748 mmHg 25%
17:00 +23°C° 0 mm 10 mps 748 mmHg 29%
18:00 +22°C° 0 mm 9 mps 749 mmHg 32%
19:00 +19°C° 0 mm 10 mps 749 mmHg 35%
20:00 +18°C° 0 mm 10 mps 749 mmHg 38%
21:00 +17°C° 0 mm 10 mps 750 mmHg 41%
22:00 +16°C° 0 mm 10 mps 750 mmHg 44%
23:00 +16°C° 0 mm 9 mps 750 mmHg 48%

Tomorrow, 1 October, Thursday

Time Temperature Precipitation Wind Pressure Humidity
00:00 +15°C° 0 mm 9 mps 750 mmHg 51%
01:00 +15°C° 0 mm 8 mps 750 mmHg 54%
02:00 +15°C° 0 mm 7 mps 750 mmHg 56%
03:00 +14°C° 0 mm 7 mps 750 mmHg 58%
04:00 +14°C° 0 mm 7 mps 750 mmHg 57%
05:00 +14°C° 0 mm 7 mps 750 mmHg 57%
06:00 +13°C° 0 mm 8 mps 750 mmHg 56%
07:00 +16°C° 0 mm 9 mps 750 mmHg 52%
08:00 +17°C° 0 mm 9 mps 750 mmHg 48%
09:00 +18°C° 0 mm 10 mps 750 mmHg 44%
10:00 +21°C° 0 mm 10 mps 750 mmHg 39%
11:00 +22°C° 0 mm 10 mps 750 mmHg 35%
12:00 +24°C° 0 mm 11 mps 749 mmHg 30%
13:00 +24°C° 0 mm 10 mps 749 mmHg 29%
14:00 +26°C° 0 mm 10 mps 749 mmHg 27%
15:00 +26°C° 0 mm 10 mps 748 mmHg 26%
16:00 +24°C° 0 mm 9 mps 749 mmHg 28%
17:00 +23°C° 0 mm 9 mps 749 mmHg 31%
18:00 +21°C° 0 mm 8 mps 749 mmHg 33%
19:00 +20°C° 0 mm 8 mps 749 mmHg 36%
20:00 +18°C° 0 mm 8 mps 750 mmHg 39%
21:00 +17°C° 0 mm 9 mps 750 mmHg 42%
22:00 +17°C° 0 mm 8 mps 750 mmHg 45%
23:00 +16°C° 0 mm 8 mps 750 mmHg 48%

Day after tomorrow, 2 October, Friday

Time Temperature Precipitation Wind Pressure Humidity
00:00 +15°C° 0 mm 8 mps 750 mmHg 51%
01:00 +15°C° 0 mm 7 mps 750 mmHg 51%
02:00 +15°C° 0 mm 7 mps 751 mmHg 52%
03:00 +15°C° 0 mm 6 mps 751 mmHg 53%
04:00 +15°C° 0 mm 6 mps 751 mmHg 54%
05:00 +15°C° 0 mm 6 mps 751 mmHg 55%
06:00 +15°C° 0 mm 6 mps 751 mmHg 56%
07:00 +16°C° 0 mm 7 mps 751 mmHg 53%
08:00 +17°C° 0 mm 8 mps 751 mmHg 49%
09:00 +18°C° 0 mm 8 mps 752 mmHg 46%
10:00 +21°C° 0 mm 8 mps 752 mmHg 43%
11:00 +22°C° 0 mm 7 mps 752 mmHg 40%
12:00 +23°C° 0 mm 7 mps 751 mmHg 37%
13:00 +23°C° 0.1 mm 6 mps 752 mmHg 39%
14:00 +23°C° 0.1 mm 5 mps 752 mmHg 40%
15:00 +22°C° 0.1 mm 5 mps 752 mmHg 42%
16:00 +21°C° 0.3 mm 4 mps 752 mmHg 48%
17:00 +20°C° 0.3 mm 3 mps 752 mmHg 54%
18:00 +19°C° 0.3 mm 2 mps 752 mmHg 61%
19:00 +18°C° 0.3 mm 3 mps 753 mmHg 63%
20:00 +18°C° 0.3 mm 4 mps 753 mmHg 65%
21:00 +17°C° 0.3 mm 5 mps 754 mmHg 68%
22:00 +16°C° 0.6 mm 5 mps 754 mmHg 73%
23:00 +15°C° 0.6 mm 5 mps 754 mmHg 79%

3 October, Saturday

Time Temperature Precipitation Wind Pressure Humidity
00:00 +14°C° 0.6 mm 5 mps 754 mmHg 84%
01:00 +14°C° 0.2 mm 5 mps 754 mmHg 82%
02:00 +14°C° 0.2 mm 5 mps 754 mmHg 80%
03:00 +14°C° 0.2 mm 5 mps 754 mmHg 79%
04:00 +13°C° 0 mm 5 mps 755 mmHg 77%
05:00 +13°C° 0 mm 5 mps 755 mmHg 75%
06:00 +13°C° 0 mm 5 mps 755 mmHg 74%
07:00 +13°C° 0 mm 5 mps 755 mmHg 72%
08:00 +13°C° 0 mm 5 mps 755 mmHg 71%
09:00 +13°C° 0 mm 5 mps 755 mmHg 70%
10:00 +14°C° 0 mm 5 mps 755 mmHg 68%
11:00 +15°C° 0 mm 5 mps 755 mmHg 66%
12:00 +16°C° 0 mm 5 mps 755 mmHg 64%
13:00 +17°C° 0 mm 5 mps 755 mmHg 60%
14:00 +17°C° 0 mm 6 mps 755 mmHg 56%
15:00 +19°C° 0 mm 6 mps 755 mmHg 52%
16:00 +17°C° 0 mm 5 mps 755 mmHg 53%
17:00 +16°C° 0 mm 5 mps 755 mmHg 54%
18:00 +15°C° 0 mm 4 mps 755 mmHg 54%
19:00 +15°C° 0 mm 4 mps 755 mmHg 59%
20:00 +14°C° 0 mm 4 mps 755 mmHg 63%
21:00 +14°C° 0 mm 4 mps 755 mmHg 67%
22:00 +13°C° 0 mm 4 mps 755 mmHg 72%
23:00 +13°C° 0 mm 4 mps 755 mmHg 77%

4 October, Sunday

Time Temperature Precipitation Wind Pressure Humidity
00:00 +13°C° 0 mm 3 mps 755 mmHg 83%
01:00 +12°C° 0 mm 3 mps 755 mmHg 84%
02:00 +12°C° 0 mm 3 mps 755 mmHg 86%
03:00 +12°C° 0 mm 3 mps 755 mmHg 87%
04:00 +12°C° 0 mm 3 mps 755 mmHg 87%
05:00 +12°C° 0 mm 4 mps 756 mmHg 87%
06:00 +12°C° 0 mm 4 mps 756 mmHg 87%
07:00 +14°C° 0 mm 4 mps 756 mmHg 79%
08:00 +15°C° 0 mm 5 mps 756 mmHg 72%
09:00 +17°C° 0 mm 5 mps 756 mmHg 64%
10:00 +20°C° 0 mm 5 mps 756 mmHg 58%
11:00 +21°C° 0 mm 5 mps 756 mmHg 53%
12:00 +23°C° 0 mm 5 mps 756 mmHg 47%
13:00 +23°C° 0 mm 5 mps 756 mmHg 45%
14:00 +25°C° 0 mm 5 mps 756 mmHg 43%
15:00 +25°C° 0 mm 5 mps 756 mmHg 40%
16:00 +23°C° 0 mm 4 mps 756 mmHg 41%
17:00 +22°C° 0 mm 4 mps 756 mmHg 43%
18:00 +20°C° 0 mm 3 mps 756 mmHg 44%
19:00 +19°C° 0 mm 4 mps 756 mmHg 43%
20:00 +19°C° 0 mm 4 mps 756 mmHg 43%
21:00 +17°C° 0 mm 5 mps 756 mmHg 43%
22:00 +17°C° 0 mm 4 mps 756 mmHg 44%
23:00 +17°C° 0 mm 4 mps 756 mmHg 44%

5 October, Monday

Time Temperature Precipitation Wind Pressure Humidity
00:00 +15°C° 0 mm 4 mps 756 mmHg 45%
01:00 +15°C° 0 mm 4 mps 756 mmHg 48%
02:00 +14°C° 0 mm 3 mps 756 mmHg 51%
03:00 +14°C° 0 mm 3 mps 756 mmHg 54%
04:00 +14°C° 0 mm 4 mps 757 mmHg 58%
05:00 +13°C° 0 mm 4 mps 757 mmHg 62%
06:00 +13°C° 0 mm 4 mps 757 mmHg 67%
07:00 +14°C° 0 mm 4 mps 757 mmHg 64%
08:00 +16°C° 0 mm 5 mps 758 mmHg 61%
09:00 +17°C° 0 mm 5 mps 758 mmHg 58%
10:00 +20°C° 0 mm 5 mps 758 mmHg 49%
11:00 +22°C° 0 mm 6 mps 758 mmHg 41%
12:00 +23°C° 0 mm 6 mps 758 mmHg 32%
13:00 +24°C° 0 mm 6 mps 757 mmHg 29%
14:00 +24°C° 0 mm 6 mps 757 mmHg 25%
15:00 +26°C° 0 mm 6 mps 757 mmHg 22%
16:00 +23°C° 0 mm 5 mps 757 mmHg 22%
17:00 +22°C° 0 mm 5 mps 757 mmHg 23%
18:00 +20°C° 0 mm 4 mps 757 mmHg 23%
19:00 +19°C° 0 mm 4 mps 757 mmHg 24%
20:00 +19°C° 0 mm 5 mps 757 mmHg 26%
21:00 +17°C° 0 mm 5 mps 758 mmHg 27%
22:00 +16°C° 0 mm 5 mps 758 mmHg 31%
23:00 +15°C° 0 mm 5 mps 758 mmHg 34%
Show more

We Need Your Consent

Meteoprog and our Service Providers may store and access personal data such as cookies, device identifiers or other similar technologies on your device and process such data to personalise content and ads, as well as provide social media features and to analyse the traffic.

  • Store and/or access information on your device

    Cookies, device identifiers or other information can be stored or accessed on your device for the purposes indicated above.

  • Personalised ads and content, ad and content measurement, audience insights, and products development

    Ads and content can be personalised based on a profile. More data can be added to better personalise ads and content. Ad and content performance can be measured. Insights about the audience who saw the ads and content can be derived. Such data can be used to develop or improve user’s experience, systems and software.

By clicking ‘I Agree’ you will allow the use of indicated cookies, device identifiers, web beacons or other similar technologies. Your settings can be changed in the browser on your device.

For certain purposes, legitimate interests may be relied on, rather than consent. You can read more about this in our Privacy and Cookie Policy.